| time (UTC) | temp C | wind direction | speed KPH | gust KPH | rain 1hr cm | rain 24hr cm | rain mn cm | humidity % | barometer mb |
| 20260505003710 | 16 | 17 | 20.9 | 35.4 | 0.00 | 0.00 | 0.00 | 42 | 1005.9 |
| 20260505002710 | 16 | 9 | 22.5 | 33.8 | 0.00 | 0.00 | 0.00 | 40 | 1005.6 |
| 20260505001710 | 17 | 334 | 19.3 | 33.8 | 0.00 | 0.00 | 0.00 | 38 | 1005.6 |
| 20260505000710 | 17 | 13 | 16.1 | 33.8 | 0.00 | 0.00 | 0.00 | 37 | 1005.8 |
| 20260504235711 | 18 | 15 | 19.3 | 38.6 | 0.00 | 0.00 | 0.00 | 35 | 1005.8 |
| 20260504234711 | 19 | 5 | 20.9 | 41.8 | 0.00 | 0.00 | 0.00 | 33 | 1005.8 |
| 20260504233711 | 20 | 15 | 16.1 | 32.2 | 0.00 | 0.00 | 0.00 | 33 | 1005.4 |
| 20260504232710 | 20 | 357 | 20.9 | 33.8 | 0.00 | 0.00 | 0.00 | 31 | 1005.2 |
| 20260504231710 | 21 | 8 | 14.5 | 29.0 | 0.00 | 0.00 | 0.00 | 32 | 1004.9 |
| 20260504230710 | 21 | 296 | 16.1 | 25.7 | 0.00 | 0.00 | 0.00 | 32 | 1004.7 |
| 20260504225710 | 21 | 20 | 17.7 | 37.0 | 0.00 | 0.00 | 0.00 | 34 | 1004.5 |
| 20260504224710 | 21 | 317 | 19.3 | 32.2 | 0.00 | 0.00 | 0.00 | 31 | 1004.3 |
| 20260504223710 | 21 | 313 | 19.3 | 27.4 | 0.00 | 0.00 | 0.00 | 29 | 1004.2 |
| 20260504221710 | 21 | 300 | 16.1 | 37.0 | 0.00 | 0.00 | 0.00 | 30 | 1004.1 |
| 20260504220711 | 22 | 9 | 16.1 | 29.0 | 0.00 | 0.00 | 0.00 | 30 | 1003.9 |
| 20260504215710 | 22 | 333 | 14.5 | 33.8 | 0.00 | 0.00 | 0.00 | 33 | 1003.8 |
| 20260504214711 | 22 | 319 | 16.1 | 33.8 | 0.00 | 0.00 | 0.00 | 31 | 1003.6 |
| 20260504212711 | 23 | 10 | 19.3 | 32.2 | 0.00 | 0.00 | 0.00 | 32 | 1003.5 |
| 20260504211710 | 23 | 334 | 16.1 | 32.2 | 0.00 | 0.00 | 0.00 | 32 | 1003.6 |
| 20260504210710 | 22 | 327 | 20.9 | 33.8 | 0.00 | 0.00 | 0.00 | 32 | 1003.6 |
| 20260504205710 | 22 | 42 | 17.7 | 29.0 | 0.00 | 0.00 | 0.00 | 35 | 1003.3 |
| 20260504203711 | 23 | 28 | 19.3 | 29.0 | 0.00 | 0.00 | 0.00 | 31 | 1003.3 |
| 20260504202710 | 23 | 0 | 12.9 | 32.2 | 0.00 | 0.00 | 0.00 | 30 | 1003.3 |
| 20260504201711 | 23 | 14 | 12.9 | 32.2 | 0.00 | 0.00 | 0.00 | 32 | 1003.2 |
| 20260504200711 | 23 | 331 | 16.1 | 25.7 | 0.00 | 0.00 | 0.00 | 31 | 1003.1 |
| 20260504194711 | 23 | 12 | 16.1 | 27.4 | 0.00 | 0.00 | 0.00 | 32 | 1003.1 |
| 20260504193710 | 23 | 0 | 19.3 | 32.2 | 0.00 | 0.00 | 0.00 | 35 | 1003.1 |
| 20260504192710 | 23 | 5 | 14.5 | 32.2 | 0.00 | 0.00 | 0.00 | 31 | 1002.9 |
| 20260504191710 | 23 | 0 | 12.9 | 32.2 | 0.00 | 0.00 | 0.00 | 32 | 1003.0 |
| 20260504190710 | 23 | 334 | 19.3 | 32.2 | 0.00 | 0.00 | 0.00 | 36 | 1002.9 |
| 20260504185710 | 23 | 323 | 22.5 | 37.0 | 0.00 | 0.00 | 0.00 | 34 | 1002.8 |
| 20260504184711 | 23 | 5 | 11.3 | 29.0 | 0.00 | 0.00 | 0.00 | 34 | 1002.7 |
| 20260504182711 | 23 | 329 | 11.3 | 25.7 | 0.00 | 0.00 | 0.00 | 41 | 1002.4 |
| 20260504181711 | 23 | 10 | 11.3 | 37.0 | 0.00 | 0.00 | 0.00 | 42 | 1002.5 |
| 20260504175711 | 23 | 334 | 17.7 | 29.0 | 0.00 | 0.00 | 0.00 | 41 | 1002.6 |
| 20260504174711 | 23 | 0 | 16.1 | 27.4 | 0.00 | 0.00 | 0.00 | 43 | 1002.5 |
| 20260504173710 | 23 | 319 | 16.1 | 29.0 | 0.00 | 0.00 | 0.00 | 44 | 1002.5 |
| 20260504172710 | 23 | 26 | 14.5 | 29.0 | 0.00 | 0.00 | 0.00 | 42 | 1002.5 |
| 20260504171710 | 23 | 314 | 19.3 | 29.0 | 0.00 | 0.00 | 0.00 | 43 | 1002.4 |
| 20260504170710 | 23 | 5 | 12.9 | 27.4 | 0.00 | 0.00 | 0.00 | 41 | 1002.3 |
| 20260504150710 | 21 | 254 | 11.3 | 20.9 | 0.00 | 0.00 | 0.00 | 45 | 1001.6 |
| 20260504140711 | 16 | 263 | 11.3 | 19.3 | 0.00 | 0.00 | 0.00 | 54 | 1002.0 |
| 20260504130710 | 11 | 227 | 3.2 | 4.8 | 0.00 | 0.00 | 0.00 | 69 | 1002.2 |
| 20260504081710 | 10 | 202 | 0.0 | 1.6 | 0.00 | 0.00 | 0.00 | 70 | 1002.5 |
| 20260504050711 | 11 | 168 | 0.0 | 0.0 | 0.00 | 0.00 | 0.00 | 64 | 1005.4 |
| 20260504045710 | 12 | 168 | 0.0 | 1.6 | 0.00 | 0.00 | 0.00 | 61 | 1005.5 |
| 20260504044711 | 12 | 93 | 1.6 | 3.2 | 0.00 | 0.00 | 0.00 | 61 | 1005.6 |
| 20260504042711 | 12 | 82 | 0.0 | 0.0 | 0.00 | 0.00 | 0.00 | 61 | 1005.8 |
| 20260504041711 | 12 | 82 | 0.0 | 0.0 | 0.00 | 0.00 | 0.00 | 59 | 1006.0 |
| 20260504040710 | 13 | 82 | 0.0 | 0.0 | 0.00 | 0.00 | 0.00 | 57 | 1006.0 |
| 20260504035711 | 13 | 82 | 0.0 | 0.0 | 0.00 | 0.00 | 0.00 | 55 | 1005.9 |
| 20260504034711 | 14 | 82 | 0.0 | 1.6 | 0.00 | 0.00 | 0.00 | 54 | 1006.0 |
| 20260504033710 | 15 | 82 | 0.0 | 3.2 | 0.00 | 0.00 | 0.00 | 52 | 1006.0 |
| 20260504032710 | 15 | 81 | 1.6 | 3.2 | 0.00 | 0.00 | 0.00 | 51 | 1006.0 |
| 20260504031710 | 16 | 76 | 1.6 | 4.8 | 0.00 | 0.00 | 0.00 | 50 | 1006.1 |
| 20260504030711 | 16 | 65 | 3.2 | 4.8 | 0.00 | 0.00 | 0.00 | 50 | 1006.1 |
| 20260504025710 | 16 | 195 | 0.0 | 0.0 | 0.00 | 0.00 | 0.00 | 51 | 1006.3 |
| 20260504023710 | 16 | 195 | 0.0 | 3.2 | 0.00 | 0.00 | 0.00 | 48 | 1006.4 |
| 20260504022710 | 16 | 195 | 0.0 | 3.2 | 0.00 | 0.00 | 0.00 | 46 | 1006.4 |
| 20260504021711 | 17 | 195 | 0.0 | 0.0 | 0.00 | 0.00 | 0.00 | 45 | 1006.4 |
| 20260504020711 | 17 | 195 | 0.0 | 3.2 | 0.00 | 0.00 | 0.00 | 45 | 1006.3 |
| 20260504015710 | 18 | 195 | 1.6 | 3.2 | 0.00 | 0.00 | 0.00 | 43 | 1006.5 |
| 20260504014710 | 18 | 195 | 1.6 | 3.2 | 0.00 | 0.00 | 0.00 | 40 | 1006.5 |
| 20260504013710 | 19 | 195 | 1.6 | 3.2 | 0.00 | 0.00 | 0.00 | 38 | 1006.5 |
| 20260504012710 | 19 | 195 | 0.0 | 4.8 | 0.00 | 0.00 | 0.00 | 38 | 1006.7 |
| 20260504011710 | 20 | 202 | 1.6 | 4.8 | 0.00 | 0.00 | 0.00 | 36 | 1006.7 |
| 20260504010711 | 21 | 192 | 3.2 | 4.8 | 0.00 | 0.00 | 0.00 | 34 | 1006.9 |
| 20260504005711 | 21 | 229 | 3.2 | 9.7 | 0.00 | 0.00 | 0.00 | 34 | 1007.1 |
| 20260504004710 | 21 | 205 | 3.2 | 9.7 | 0.00 | 0.00 | 0.00 | 35 | 1007.1 |